Temp
85 85 85 85 84 83 83 83 82 82 81 81 80 81 81 81 80 79 78 77 77 76 76 76 76 76 75 75 75 74 74 74 73 72 71 70 72 71 69 70 70 69 69 71 70 70 71 74 73 72 72 73 73 73 72 73 72 73 71 71 71 70 70
85 84 84 85 84 83 83 83 82 83 82 81 81 81 82 81 80 79 78 78 77 77 76 77 76 75 76 75 75 74 74 74 75 75 73 73 73 70 70 69 70 69 68 70 70 70 72 72 73 72 73 73 72 71 72 72 72 70 70 70 69 69 69
85 83 84 84 84 82 82 83 83 83 83 83 82 82 81 80 80 79 78 78 76 76 76 76 76 75 76 75 75 74 75 74 74 74 72 71 71 72 71 71 69 69 71 71 71 71 72 71 72 72 72 71 71 71 71 70 71 71 70 69 69 69 68
83 83 83 84 84 83 83 83 83 83 84 84 83 83 81 80 80 80 79 79 77 76 76 76 76 75 75 75 75 74 74 74 74 74 73 72 72 72 72 70 70 70 72 70 72 73 73 72 72 71 74 71 70 70 70 70 70 70 70 70 69 69 69
83 83 82 83 83 81 82 82 83 83 84 85 84 83 82 81 81 80 80 79 79 77 77 77 77 76 75 76 76 75 75 74 74 74 73 73 72 72 71 71 71 71 71 72 71 72 71 70 70 70 70 70 70 70 70 70 70 70 69 69 68 69 69
83 81 81 83 83 82 82 84 85 85 84 84 83 82 82 82 82 81 80 79 79 79 78 77 76 76 75 75 76 75 75 75 74 74 73 72 72 72 71 70 71 71 71 70 71 70 71 69 70 70 69 70 71 70 70 70 70 70 70 70 69 69 70
83 81 81 83 83 83 83 84 85 86 86 85 84 83 84 83 82 82 81 80 80 77 77 77 77 76 75 75 75 75 74 74 74 74 74 73 72 71 71 71 73 72 71 71 71 70 71 70 70 70 70 70 70 70 69 69 69 69 70 69 69 68 68
80 78 79 82 84 84 85 84 85 86 85 84 84 84 84 83 83 82 81 81 81 80 79 79 77 76 75 75 75 75 75 74 74 74 73 73 72 72 72 72 72 72 70 70 71 71 72 71 71 71 71 70 70 70 70 69 69 70 70 69 68 67 70
81 81 80 82 84 85 85 84 84 84 83 82 82 82 83 82 83 82 82 82 81 80 80 81 79 77 76 76 74 74 74 74 74 74 73 73 72 73 73 73 73 72 72 72 72 72 72 72 72 71 71 70 70 70 70 70 70 70 69 68 68 67 68
79 79 80 83 86 86 85 84 84 82 81 81 81 81 82 82 82 82 82 82 82 81 81 81 80 79 77 76 75 75 74 74 74 75 75 74 73 73 75 75 74 74 73 73 73 72 72 72 72 71 70 70 70 70 70 70 69 70 69 69 68 68 67
80 79 80 81 82 83 83 82 81 81 80 80 81 81 82 81 82 82 81 83 83 82 82 82 80 79 78 77 76 75 74 74 75 75 74 74 74 75 76 77 77 73 73 73 72 71 70 70 71 70 70 71 70 70 70 70 70 69 69 69 69 69 68
79 79 78 80 80 80 81 81 80 80 80 80 80 81 81 81 82 82 82 82 84 83 82 81 81 80 79 78 76 74 74 75 75 75 74 74 74 75 76 77 72 72 72 71 71 71 71 70 69 70 69 68 69 68 68 67 68 68 69 69 69 68 67
78 78 79 80 80 81 80 78 78 79 80 80 80 81 81 81 81 82 81 81 84 83 82 81 80 79 79 79 77 75 75 75 75 75 75 74 74 74 75 74 76 76 72 73 73 74 72 71 70 70 70 69 69 70 70 69 68 68 68 69 68 68 66
80 78 78 80 78 79 79 79 79 78 78 79 80 80 81 81 81 81 80 81 83 83 83 82 80 79 78 77 75 75 75 76 76 75 75 75 74 74 74 73 71 70 71 71 70 71 70 70 70 70 70 69 70 69 69 69 68 68 67 68 68 67 67
76 79 79 79 78 77 79 79 78 78 78 79 80 80 80 80 80 80 80 82 81 82 82 80 79 78 77 77 75 75 75 75 76 75 75 75 73 73 73 72 70 70 70 71 71 72 71 71 71 69 69 69 69 69 69 70 70 69 69 68 68 68 67
77 76 77 79 79 78 78 80 79 79 79 78 79 79 80 79 79 80 80 80 78 79 79 78 78 77 76 75 75 75 75 75 75 75 74 74 73 72 72 71 71 70 69 70 70 69 70 70 70 71 70 70 69 68 70 70 71 71 71 70 69 68 68
75 76 76 78 77 78 78 79 80 79 79 78 79 79 79 80 80 80 81 79 77 77 78 79 77 76 76 75 75 75 76 75 74 74 74 73 72 71 71 71 71 70 69 69 69 70 70 71 70 71 72 71 69 69 70 71 71 68 66 67 69 68 66
75 75 75 74 77 78 78 78 78 78 78 79 79 79 79 79 79 76 69 70 69 73 77 78 77 75 74 74 73 73 74 74 73 73 73 72 71 71 71 70 70 69 69 69 70 70 71 70 70 70 70 70 69 68 69 69 69 65 64 65 65 67 66
76 76 75 75 75 77 78 79 79 78 79 80 80 79 80 78 71 66 68 68 69 69 71 73 73 72 72 70 71 73 74 73 73 72 71 71 71 71 70 70 70 69 69 70 71 71 70 70 70 69 69 69 68 68 69 68 68 64 64 64 64 64 65
77 77 78 77 76 76 79 80 80 80 80 79 79 78 74 71 68 69 69 70 70 71 71 69 69 69 70 70 71 73 74 73 73 72 72 71 71 71 70 70 70 71 71 71 71 70 70 70 69 69 68 69 68 68 68 67 68 64 62 62 62 62 63
75 76 75 75 76 78 75 79 80 79 77 77 76 71 69 69 70 70 70 70 70 69 68 69 69 68 69 70 72 74 74 73 72 72 71 71 71 70 70 70 70 71 71 72 71 70 69 69 68 68 69 69 69 68 68 70 66 64 62 60 60 61 63
76 76 77 79 79 78 77 76 78 79 76 74 72 72 71 70 71 71 68 68 67 66 67 68 68 69 70 71 74 75 74 73 72 71 71 71 71 71 70 70 70 70 71 71 70 69 69 68 68 69 68 68 69 68 66 69 66 63 60 58 59 60 63
82 80 79 77 79 78 76 75 79 77 72 72 72 70 69 70 70 68 68 68 68 68 68 68 68 69 70 73 75 75 74 73 73 72 71 71 71 70 71 70 70 70 71 70 69 68 68 68 69 69 70 68 68 67 66 66 61 59 59 58 58 60 62
86 83 83 80 79 80 81 79 75 71 72 71 69 69 69 69 69 69 68 67 67 68 67 68 70 71 71 73 75 75 74 74 73 73 72 71 71 71 71 71 71 71 71 69 68 68 69 69 69 69 68 68 68 68 65 65 60 56 55 56 57 60 62
83 83 82 81 80 74 71 70 69 70 69 68 66 67 68 68 68 69 68 67 67 68 68 68 70 71 73 75 76 75 75 75 74 73 73 72 72 73 72 71 71 71 71 70 69 68 67 69 69 68 68 68 66 68 64 62 62 57 56 56 56 59 62
77 79 80 81 73 68 69 70 69 69 69 68 66 67 68 68 67 66 66 66 68 67 68 69 70 73 76 77 76 76 75 75 75 74 74 73 72 72 72 72 71 70 70 67 68 68 67 69 69 67 64 64 63 64 63 63 63 62 57 55 55 56 60
79 80 80 76 68 70 70 70 70 68 68 67 66 67 67 68 67 66 66 67 67 68 70 71 73 75 76 76 76 75 75 75 75 74 74 73 73 73 72 71 70 69 67 68 69 68 66 67 66 64 61 62 63 63 62 64 63 63 57 54 53 54 56
79 81 76 72 71 70 69 69 68 67 67 67 68 68 68 68 68 67 67 67 67 69 73 74 75 75 75 75 75 76 75 74 74 75 74 73 72 70 68 68 68 67 66 66 66 67 66 66 64 62 60 61 62 63 61 63 66 63 59 54 52 51 53
75 75 72 70 69 71 70 67 66 66 67 70 71 70 69 70 69 68 68 68 71 74 75 74 75 74 75 75 75 74 74 73 73 73 73 71 70 69 66 64 64 64 64 65 65 65 65 65 64 61 60 61 58 60 60 61 63 62 62 55 50 50 52
75 76 74 73 72 70 70 66 67 67 70 71 71 69 69 70 69 69 70 71 71 72 72 72 72 72 72 71 71 71 70 71 71 71 70 70 68 67 65 64 63 63 63 63 62 63 63 63 64 61 60 59 59 59 61 61 60 61 60 59 54 51 51
72 73 74 72 71 70 71 70 68 70 70 70 70 70 70 71 71 71 70 71 71 70 71 70 70 70 70 69 70 70 70 70 69 69 69 68 67 65 64 64 64 62 63 63 63 63 64 62 61 61 58 59 59 59 59 60 60 60 60 60 57 55 52
71 73 74 73 72 72 73 73 73 72 70 70 70 71 71 73 73 71 71 71 70 71 70 70 69 69 69 70 69 68 68 68 68 68 68 68 67 65 64 64 64 63 63 63 63 63 63 62 61 60 60 59 59 59 59 59 59 56 56 59 58 56 55
70 70 71 70 72 74 73 74 73 72 72 71 73 74 74 73 73 73 72 71 71 70 69 68 68 67 67 66 66 65 65 64 65 66 66 66 64 64 63 62 61 63 64 64 63 63 63 61 61 59 58 59 59 59 59 58 55 54 54 54 54 54 55
68 69 69 71 72 73 73 73 72 72 71 70 70 70 70 70 70 71 72 75 75 72 70 69 68 66 65 65 65 65 65 66 71 68 65 63 63 63 63 64 65 62 60 57 59 59 60 60 60 58 58 57 59 57 58 56 53 52 51 51 51 52 51
67 67 67 68 68 69 68 68 70 70 69 69 69 69 68 69 71 77 74 75 73 71 70 69 69 68 68 67 66 66 68 67 67 66 65 62 55 51 50 53 58 58 54 54 52 56 59 60 59 59 59 57 55 56 57 55 53 53 50 49 47 46 48
68 69 68 69 69 69 69 69 69 69 69 69 69 71 71 72 72 77 77 76 74 72 70 69 68 68 67 67 68 69 68 68 68 68 66 62 56 53 52 49 43 48 56 54 52 48 47 51 56 56 57 54 53 53 54 54 54 49 42 40 40 40 41
69 69 69 69 68 68 68 68 69 69 68 68 68 69 69 68 68 69 72 74 74 73 71 70 68 69 69 70 71 70 69 68 67 67 66 63 59 56 54 51 49 42 42 47 48 45 41 41 44 48 53 55 52 51 50 51 47 42 41 40 40 40 39
70 70 71 70 69 68 68 69 69 69 68 69 69 70 70 69 69 69 74 74 73 72 70 69 68 66 66 67 66 68 68 67 68 67 67 65 61 58 56 53 51 50 43 40 42 42 41 41 42 43 45 49 52 52 51 47 43 42 41 41 41 40 40
MSLP
1007.57 1008.13 1008.37 1008.45 1008.89 1009.33 1009.57 1009.73 1010.01 1010.41 1010.77 1011.21 1011.49 1011.65 1011.93 1012.13 1012.37 1012.65 1013.13 1013.37 1013.69 1014.09 1014.05 1014.09 1014.25 1014.45 1014.61 1014.73 1014.81 1014.93 1015.05 1015.29 1015.45 1015.73 1015.89 1016.01 1016.09 1016.29 1016.45 1016.45 1016.61 1016.73 1016.73 1016.89 1016.93 1016.89 1016.81 1016.65 1016.73 1016.73 1016.69 1016.73 1016.77 1016.77 1016.77 1016.77 1016.81 1016.77 1016.77 1016.77 1016.81 1016.85 1016.89
1007.57 1007.85 1008.05 1008.13 1008.57 1009.01 1009.13 1009.29 1009.65 1009.97 1010.37 1010.69 1011.05 1011.29 1011.49 1011.73 1012.01 1012.45 1012.77 1012.97 1013.25 1013.53 1013.73 1013.85 1014.01 1014.29 1014.25 1014.37 1014.53 1014.73 1014.97 1015.17 1015.33 1015.49 1015.69 1015.93 1015.97 1016.09 1016.13 1016.33 1016.45 1016.57 1016.57 1016.57 1016.57 1016.57 1016.57 1016.57 1016.61 1016.73 1016.73 1016.69 1016.69 1016.61 1016.65 1016.65 1016.65 1016.69 1016.73 1016.69 1016.81 1016.85 1016.81
1006.93 1007.45 1007.77 1007.97 1008.21 1008.61 1008.89 1009.09 1009.29 1009.45 1009.77 1010.17 1010.49 1010.85 1011.09 1011.33 1011.49 1011.85 1012.33 1012.77 1013.21 1013.41 1013.53 1013.69 1013.73 1014.01 1014.01 1014.13 1014.37 1014.57 1014.69 1014.97 1015.25 1015.41 1015.69 1015.89 1016.01 1016.05 1016.05 1016.17 1016.29 1016.37 1016.37 1016.29 1016.33 1016.41 1016.37 1016.53 1016.53 1016.53 1016.57 1016.61 1016.61 1016.57 1016.53 1016.49 1016.49 1016.49 1016.53 1016.57 1016.65 1016.73 1016.77
1006.77 1007.01 1007.21 1007.17 1007.41 1007.77 1008.09 1008.33 1008.65 1008.89 1009.09 1009.29 1009.69 1010.05 1010.45 1010.77 1010.93 1011.29 1011.69 1012.17 1012.81 1013.17 1013.41 1013.53 1013.61 1013.77 1013.85 1013.97 1014.13 1014.37 1014.57 1014.73 1014.93 1015.17 1015.37 1015.49 1015.73 1015.81 1016.05 1016.13 1016.13 1016.17 1016.29 1016.33 1016.17 1016.17 1016.21 1016.25 1016.37 1016.41 1016.41 1016.53 1016.53 1016.49 1016.45 1016.45 1016.37 1016.33 1016.33 1016.41 1016.53 1016.49 1016.53
1006.29 1006.53 1007.17 1007.49 1007.65 1007.93 1008.09 1008.21 1008.33 1008.53 1008.73 1008.77 1008.97 1009.25 1009.61 1010.05 1010.49 1011.01 1011.45 1011.77 1012.13 1012.65 1012.81 1013.05 1013.21 1013.33 1013.49 1013.57 1013.85 1014.05 1014.29 1014.45 1014.69 1014.85 1015.09 1015.21 1015.41 1015.61 1015.85 1016.05 1016.13 1016.17 1016.13 1016.05 1015.93 1016.01 1016.13 1016.29 1016.37 1016.33 1016.37 1016.41 1016.45 1016.41 1016.45 1016.37 1016.33 1016.21 1016.25 1016.25 1016.41 1016.37 1016.37
1006.37 1006.65 1006.85 1006.97 1007.17 1007.41 1007.49 1007.53 1007.61 1007.81 1008.21 1008.57 1008.85 1009.17 1009.45 1009.85 1010.21 1010.73 1011.05 1011.49 1011.93 1012.21 1012.49 1012.85 1013.13 1013.21 1013.41 1013.45 1013.61 1013.89 1014.05 1014.21 1014.25 1014.45 1014.77 1015.01 1015.21 1015.53 1015.69 1015.85 1015.93 1015.93 1015.93 1015.89 1015.77 1015.89 1015.93 1016.09 1016.17 1016.21 1016.29 1016.25 1016.29 1016.33 1016.29 1016.29 1016.21 1016.13 1016.13 1016.17 1016.21 1016.21 1016.29
1005.77 1006.13 1006.37 1006.37 1006.53 1006.89 1007.05 1007.13 1007.21 1007.33 1007.49 1007.81 1008.17 1008.57 1009.05 1009.49 1009.85 1010.21 1010.65 1011.17 1011.45 1012.01 1012.41 1012.69 1012.81 1012.97 1013.21 1013.33 1013.49 1013.69 1014.01 1014.17 1014.17 1014.29 1014.41 1014.77 1015.01 1015.33 1015.49 1015.57 1015.65 1015.69 1015.65 1015.65 1015.77 1015.73 1015.85 1015.93 1015.97 1016.01 1016.09 1016.09 1016.13 1016.17 1016.17 1016.17 1016.13 1016.01 1016.05 1016.09 1016.13 1016.09 1016.09
1005.89 1006.53 1006.29 1006.13 1006.21 1006.33 1006.57 1006.77 1006.85 1007.01 1007.25 1007.61 1008.17 1008.65 1008.89 1009.05 1009.45 1009.93 1010.37 1010.61 1011.01 1011.49 1011.93 1012.29 1012.57 1012.73 1012.97 1013.13 1013.29 1013.57 1013.81 1013.97 1014.01 1014.13 1014.33 1014.69 1014.93 1015.17 1015.33 1015.45 1015.45 1015.41 1015.57 1015.73 1015.61 1015.61 1015.73 1015.73 1015.77 1015.81 1015.89 1015.93 1015.93 1015.93 1015.89 1015.85 1015.85 1015.81 1015.85 1015.97 1016.01 1016.01 1015.89
1005.41 1005.37 1006.01 1006.01 1005.97 1006.01 1006.09 1006.25 1006.41 1006.65 1006.97 1007.37 1007.65 1007.93 1008.21 1008.65 1009.01 1009.37 1009.77 1010.17 1010.49 1010.97 1011.41 1011.57 1011.93 1012.17 1012.49 1012.89 1013.21 1013.45 1013.61 1013.85 1014.01 1014.05 1014.29 1014.69 1014.93 1015.09 1015.17 1015.21 1015.21 1015.21 1015.45 1015.53 1015.49 1015.45 1015.49 1015.53 1015.61 1015.65 1015.65 1015.69 1015.69 1015.69 1015.69 1015.65 1015.61 1015.57 1015.69 1015.77 1015.81 1015.89 1015.85
1005.69 1005.93 1005.77 1005.61 1005.41 1005.37 1005.65 1005.85 1006.09 1006.61 1007.17 1007.45 1007.73 1007.97 1008.09 1008.21 1008.49 1008.85 1009.21 1009.57 1009.97 1010.53 1010.85 1011.09 1011.41 1011.77 1012.25 1012.69 1013.05 1013.21 1013.41 1013.73 1013.81 1013.85 1014.05 1014.57 1014.81 1014.97 1014.97 1014.97 1014.93 1014.93 1015.17 1015.17 1015.13 1015.29 1015.29 1015.29 1015.37 1015.45 1015.53 1015.53 1015.49 1015.49 1015.45 1015.45 1015.45 1015.41 1015.41 1015.49 1015.57 1015.65 1015.65
1005.33 1005.53 1005.65 1005.69 1005.53 1005.41 1005.61 1006.01 1006.41 1006.57 1006.77 1007.01 1007.17 1007.33 1007.57 1007.93 1008.21 1008.45 1008.77 1009.05 1009.49 1009.93 1010.17 1010.53 1010.93 1011.49 1012.01 1012.41 1012.85 1013.05 1013.29 1013.49 1013.57 1013.65 1013.81 1014.25 1014.53 1014.69 1014.65 1014.65 1014.57 1014.69 1014.69 1014.81 1015.05 1015.05 1015.05 1015.05 1015.01 1015.17 1015.25 1015.33 1015.29 1015.29 1015.25 1015.25 1015.21 1015.25 1015.25 1015.21 1015.17 1015.25 1015.33
1005.37 1005.61 1005.73 1005.61 1005.65 1005.65 1005.85 1005.77 1005.97 1006.17 1006.41 1006.61 1006.77 1006.97 1007.25 1007.45 1007.73 1007.97 1008.25 1008.53 1008.81 1009.45 1009.81 1010.25 1010.65 1011.21 1011.77 1012.13 1012.57 1012.93 1013.05 1013.21 1013.29 1013.29 1013.57 1013.93 1014.21 1014.33 1014.33 1014.33 1014.45 1014.49 1014.53 1014.53 1014.77 1014.85 1014.93 1015.01 1014.97 1014.93 1015.01 1015.05 1015.01 1015.05 1015.05 1015.01 1014.97 1014.97 1014.97 1014.97 1014.93 1015.01 1015.13
1005.13 1005.41 1005.45 1005.49 1005.53 1005.37 1005.37 1005.77 1006.01 1005.97 1005.97 1006.17 1006.37 1006.57 1006.77 1007.05 1007.37 1007.61 1007.97 1008.33 1008.49 1008.85 1009.45 1010.05 1010.57 1011.13 1011.65 1011.97 1012.29 1012.61 1012.81 1012.93 1013.01 1012.97 1013.29 1013.65 1013.89 1013.97 1014.05 1014.13 1014.05 1014.09 1014.37 1014.29 1014.49 1014.73 1014.85 1014.85 1014.89 1014.81 1014.81 1014.81 1014.77 1014.77 1014.73 1014.69 1014.65 1014.65 1014.65 1014.69 1014.73 1014.81 1014.97
1004.73 1005.09 1005.13 1005.05 1005.37 1005.49 1005.57 1005.49 1005.57 1005.93 1006.05 1006.09 1006.21 1006.25 1006.45 1006.61 1006.81 1007.17 1007.49 1007.93 1008.17 1008.65 1009.29 1009.85 1010.49 1011.13 1011.49 1011.73 1012.05 1012.33 1012.57 1012.57 1012.61 1012.85 1013.13 1013.41 1013.61 1013.77 1013.81 1013.81 1013.89 1014.01 1014.13 1014.21 1014.45 1014.65 1014.81 1014.89 1014.89 1014.69 1014.61 1014.61 1014.53 1014.45 1014.33 1014.37 1014.45 1014.41 1014.41 1014.49 1014.57 1014.69 1014.77
1004.73 1004.85 1005.05 1005.01 1004.97 1005.09 1005.13 1005.33 1005.45 1005.61 1005.73 1005.81 1005.85 1006.13 1006.33 1006.57 1006.81 1006.93 1007.29 1007.53 1007.97 1008.41 1008.85 1009.41 1010.21 1010.77 1011.05 1011.29 1011.77 1012.13 1012.17 1012.17 1012.33 1012.57 1012.97 1013.25 1013.49 1013.61 1013.65 1013.65 1013.69 1013.73 1013.85 1013.93 1014.13 1014.29 1014.45 1014.53 1014.57 1014.61 1014.57 1014.45 1014.37 1014.37 1014.29 1014.29 1014.25 1014.21 1014.17 1014.29 1014.41 1014.41 1014.53
1004.57 1004.97 1005.09 1004.93 1004.53 1004.69 1004.69 1004.57 1004.73 1004.97 1005.17 1005.45 1005.61 1005.81 1006.09 1006.33 1006.49 1006.69 1007.17 1007.77 1008.41 1008.61 1008.69 1009.01 1009.69 1010.21 1010.57 1011.01 1011.33 1011.41 1011.45 1011.61 1012.01 1012.45 1012.77 1013.13 1013.33 1013.37 1013.41 1013.45 1013.49 1013.61 1013.73 1013.89 1014.01 1014.17 1014.21 1014.29 1014.33 1014.37 1014.41 1014.41 1014.37 1014.29 1014.21 1014.09 1014.01 1013.93 1013.85 1013.85 1014.01 1014.13 1014.21
1004.05 1004.17 1004.37 1004.49 1004.73 1004.65 1004.53 1004.41 1004.21 1004.33 1004.73 1004.97 1005.17 1005.37 1005.65 1005.85 1006.05 1006.45 1007.01 1007.69 1008.61 1008.69 1008.69 1008.69 1009.37 1009.85 1010.29 1010.57 1010.45 1010.89 1011.13 1011.37 1011.85 1012.25 1012.73 1012.93 1013.09 1013.17 1013.21 1013.25 1013.33 1013.49 1013.65 1013.77 1013.89 1014.01 1014.01 1014.05 1014.21 1014.17 1014.17 1014.21 1014.21 1014.13 1013.97 1013.89 1013.85 1013.77 1013.77 1013.73 1013.73 1013.85 1013.97
1004.09 1004.13 1004.09 1004.45 1004.61 1004.53 1004.41 1004.37 1004.41 1004.49 1004.57 1004.57 1004.69 1005.01 1005.41 1005.77 1006.33 1007.37 1009.17 1009.69 1010.25 1009.97 1009.13 1008.97 1009.33 1009.81 1010.05 1010.25 1011.17 1011.73 1011.45 1011.49 1011.81 1012.21 1012.57 1012.77 1012.93 1012.93 1012.97 1013.05 1013.17 1013.33 1013.49 1013.65 1013.81 1013.81 1013.77 1013.89 1013.93 1013.89 1013.89 1013.89 1013.85 1013.89 1013.81 1013.77 1013.61 1013.61 1013.65 1013.65 1013.61 1013.69 1013.77
1003.77 1003.69 1003.85 1003.85 1004.05 1004.17 1004.33 1004.25 1004.17 1004.17 1004.09 1004.13 1004.33 1004.77 1004.97 1005.69 1007.29 1008.25 1008.25 1008.25 1008.41 1008.81 1009.33 1009.49 1009.89 1010.33 1010.77 1011.41 1012.77 1012.45 1011.65 1011.53 1011.85 1012.17 1012.45 1012.57 1012.61 1012.69 1012.81 1012.93 1013.05 1013.21 1013.37 1013.53 1013.45 1013.49 1013.65 1013.65 1013.61 1013.65 1013.53 1013.53 1013.61 1013.61 1013.49 1013.49 1013.41 1013.45 1013.49 1013.49 1013.45 1013.41 1013.53
1003.21 1003.33 1003.25 1003.13 1003.21 1003.61 1003.65 1003.57 1003.57 1003.61 1003.57 1003.57 1003.81 1004.33 1005.09 1005.85 1006.37 1006.61 1006.57 1007.01 1007.57 1008.09 1008.53 1009.45 1010.13 1010.77 1011.61 1012.21 1012.57 1012.49 1012.17 1011.65 1011.89 1012.17 1012.29 1012.37 1012.49 1012.57 1012.69 1012.77 1012.93 1012.93 1012.97 1013.09 1013.17 1013.33 1013.41 1013.37 1013.37 1013.29 1013.29 1013.25 1013.25 1013.25 1013.21 1013.21 1013.09 1013.09 1013.13 1013.17 1013.25 1013.29 1013.33
1003.09 1003.05 1003.13 1003.01 1002.85 1002.61 1002.89 1003.21 1003.21 1003.29 1003.57 1003.73 1004.33 1005.21 1005.53 1005.97 1006.05 1006.37 1006.73 1007.13 1007.97 1008.65 1009.09 1009.57 1010.21 1010.61 1011.17 1011.77 1011.77 1011.77 1011.69 1011.73 1011.85 1012.09 1012.21 1012.29 1012.37 1012.41 1012.45 1012.53 1012.61 1012.73 1012.77 1012.89 1013.01 1013.13 1013.17 1013.13 1013.13 1013.05 1013.01 1012.97 1012.89 1012.97 1012.97 1012.89 1012.73 1012.77 1012.81 1012.93 1012.97 1012.89 1013.09
1002.49 1002.53 1002.81 1002.57 1002.45 1002.21 1002.17 1002.53 1002.97 1003.09 1003.61 1004.53 1005.25 1005.61 1005.41 1005.93 1006.17 1006.89 1007.93 1008.37 1009.05 1009.97 1010.69 1010.81 1010.65 1011.13 1011.73 1011.97 1011.45 1011.33 1011.33 1011.53 1011.77 1011.97 1012.09 1012.17 1012.17 1012.21 1012.25 1012.29 1012.37 1012.53 1012.53 1012.61 1012.69 1012.65 1012.73 1012.77 1012.69 1012.73 1012.77 1012.69 1012.69 1012.77 1012.85 1012.65 1012.61 1012.73 1012.73 1012.73 1012.73 1012.89 1012.97
1001.65 1001.89 1002.01 1001.97 1001.97 1002.13 1001.81 1002.01 1002.21 1003.29 1004.61 1005.01 1005.17 1005.45 1005.97 1006.17 1006.49 1007.05 1007.53 1008.05 1008.53 1009.17 1009.57 1009.93 1010.45 1010.53 1010.65 1010.93 1010.89 1010.85 1010.93 1011.17 1011.49 1011.73 1011.85 1011.85 1011.93 1011.97 1011.97 1012.09 1012.17 1012.21 1012.21 1012.45 1012.49 1012.57 1012.61 1012.61 1012.53 1012.41 1012.45 1012.45 1012.45 1012.61 1012.81 1012.93 1012.85 1012.69 1012.73 1012.85 1012.97 1012.97 1012.89
1000.97 1001.05 1001.21 1001.57 1001.53 1001.57 1001.89 1002.61 1004.05 1005.45 1005.41 1005.77 1006.17 1006.41 1006.69 1006.65 1006.73 1006.77 1007.17 1007.61 1008.09 1008.77 1009.69 1009.97 1009.85 1009.89 1010.09 1010.33 1010.29 1010.41 1010.53 1010.77 1011.05 1011.37 1011.49 1011.57 1011.61 1011.57 1011.57 1011.57 1011.65 1011.85 1011.85 1012.13 1012.33 1012.45 1012.41 1012.33 1012.33 1012.25 1012.25 1012.29 1012.53 1012.69 1012.69 1012.69 1012.65 1012.53 1012.45 1012.45 1012.65 1012.85 1012.89
1001.13 1001.41 1001.53 1001.53 1002.21 1003.69 1004.01 1004.53 1004.69 1005.21 1005.89 1006.69 1007.81 1008.33 1008.85 1009.17 1009.17 1008.89 1008.37 1008.89 1009.57 1009.93 1009.57 1009.45 1009.49 1009.53 1009.65 1009.73 1009.77 1009.93 1010.09 1010.33 1010.61 1010.85 1010.97 1011.09 1011.05 1011.05 1011.21 1011.25 1011.37 1011.37 1011.45 1011.65 1011.85 1012.05 1012.01 1012.09 1012.21 1012.25 1012.29 1012.37 1012.53 1012.57 1012.65 1012.61 1012.49 1012.41 1012.33 1012.41 1012.57 1012.69 1012.73
1001.81 1001.61 1001.69 1002.05 1003.45 1003.41 1003.89 1004.29 1004.69 1005.37 1006.13 1006.73 1007.33 1007.33 1007.49 1007.85 1008.37 1009.37 1010.01 1010.01 1009.73 1010.21 1010.01 1009.33 1009.05 1008.85 1008.85 1009.05 1009.25 1009.37 1009.53 1009.77 1010.05 1010.21 1010.37 1010.57 1010.65 1010.69 1010.77 1010.81 1010.97 1011.17 1011.41 1011.61 1011.73 1011.93 1011.97 1012.01 1012.09 1012.29 1012.41 1012.49 1012.61 1012.53 1012.49 1012.49 1012.41 1012.33 1012.37 1012.41 1012.49 1012.65 1012.73
1001.45 1001.29 1001.69 1003.21 1004.21 1004.09 1004.17 1004.37 1004.49 1005.05 1005.41 1005.93 1006.49 1006.93 1007.53 1008.33 1008.13 1008.21 1008.41 1008.69 1009.13 1009.25 1009.01 1008.73 1008.69 1008.65 1008.77 1008.89 1008.89 1008.97 1009.13 1009.29 1009.49 1009.73 1009.81 1009.93 1010.13 1010.25 1010.45 1010.61 1010.85 1011.09 1011.33 1011.61 1011.65 1011.73 1011.93 1012.13 1012.21 1012.25 1012.25 1012.37 1012.41 1012.41 1012.29 1012.29 1012.37 1012.25 1012.37 1012.49 1012.73 1012.81 1012.77
1001.73 1002.17 1003.05 1003.41 1003.57 1003.81 1004.29 1004.53 1004.85 1005.17 1005.69 1006.09 1006.45 1006.73 1007.21 1007.85 1008.01 1008.13 1008.29 1008.77 1008.97 1008.81 1008.61 1008.45 1008.45 1008.57 1008.61 1008.57 1008.57 1008.61 1008.77 1008.97 1009.05 1009.09 1009.37 1009.53 1009.77 1010.21 1010.57 1010.73 1010.89 1011.09 1011.29 1011.41 1011.61 1011.89 1012.05 1012.13 1012.17 1012.21 1012.25 1012.29 1012.21 1012.17 1012.21 1012.21 1012.21 1012.29 1012.53 1012.93 1013.01 1013.05 1013.01
1002.85 1003.49 1004.13 1004.29 1004.37 1004.05 1004.09 1004.97 1005.37 1005.65 1005.77 1005.73 1005.93 1006.33 1006.61 1007.05 1007.45 1007.77 1008.09 1008.37 1008.01 1007.61 1007.53 1007.65 1007.89 1008.37 1008.45 1008.21 1008.21 1008.33 1008.57 1008.69 1008.81 1009.01 1009.17 1009.53 1009.81 1010.25 1010.81 1011.01 1011.05 1011.21 1011.29 1011.41 1011.69 1012.01 1012.05 1012.01 1012.01 1012.13 1012.25 1012.29 1012.21 1012.21 1012.13 1012.13 1012.25 1012.49 1012.69 1012.89 1012.93 1012.97 1012.89
1002.97 1003.21 1003.73 1003.81 1003.85 1004.21 1004.25 1004.97 1005.41 1005.65 1005.57 1005.37 1005.57 1005.97 1006.49 1006.89 1007.09 1007.41 1007.53 1007.33 1007.01 1007.13 1007.37 1007.57 1007.69 1007.73 1007.93 1008.09 1008.25 1008.41 1008.69 1008.89 1009.05 1009.17 1009.41 1009.73 1010.09 1010.49 1010.89 1011.13 1011.25 1011.45 1011.57 1011.77 1012.37 1012.49 1012.01 1011.89 1011.85 1012.05 1012.29 1012.37 1012.37 1012.21 1012.13 1012.17 1012.37 1012.57 1012.77 1012.81 1012.81 1012.77 1012.69
1003.57 1003.69 1003.89 1004.01 1004.09 1004.05 1003.93 1004.37 1005.09 1005.29 1005.45 1005.41 1005.45 1005.97 1006.37 1006.53 1006.69 1007.09 1007.17 1006.93 1006.81 1006.97 1007.05 1007.13 1007.25 1007.49 1007.81 1008.05 1008.37 1008.61 1008.85 1008.97 1009.21 1009.41 1009.61 1009.89 1010.13 1010.61 1010.93 1011.09 1011.05 1011.33 1011.41 1011.61 1011.85 1011.93 1011.81 1011.69 1011.81 1012.05 1012.29 1012.37 1012.45 1012.33 1012.25 1012.25 1012.41 1012.65 1012.77 1012.73 1012.69 1012.61 1012.49
1003.65 1003.65 1003.65 1003.89 1004.33 1004.33 1004.21 1004.37 1004.65 1005.05 1005.53 1005.69 1005.61 1005.73 1006.05 1006.29 1006.45 1006.77 1006.85 1006.65 1006.85 1006.69 1006.73 1006.97 1007.41 1007.93 1008.29 1008.45 1008.73 1008.93 1008.85 1009.09 1009.33 1009.45 1009.65 1009.89 1010.17 1010.45 1010.65 1010.85 1010.93 1011.05 1011.13 1011.29 1011.45 1011.49 1011.65 1011.73 1011.89 1012.09 1012.21 1012.33 1012.29 1012.29 1012.25 1012.37 1012.61 1012.81 1012.81 1012.73 1012.69 1012.61 1012.53
1003.97 1003.65 1003.69 1003.93 1004.01 1004.13 1004.37 1004.53 1005.01 1005.33 1005.53 1005.97 1005.81 1005.65 1005.65 1005.85 1005.81 1005.77 1006.09 1006.45 1006.69 1006.77 1006.85 1007.09 1007.41 1008.09 1008.37 1008.81 1009.01 1009.01 1009.09 1009.29 1009.57 1009.73 1009.81 1010.01 1010.13 1010.29 1010.45 1010.57 1010.65 1010.73 1010.93 1011.13 1011.41 1011.53 1011.61 1011.69 1011.89 1012.01 1012.09 1012.05 1012.13 1012.17 1012.25 1012.57 1012.81 1012.97 1012.97 1012.89 1012.85 1012.81 1012.69
1004.29 1004.05 1003.77 1003.65 1003.85 1003.89 1004.13 1004.33 1004.73 1005.09 1005.37 1005.81 1005.97 1005.89 1005.77 1005.65 1005.65 1005.61 1005.85 1006.05 1006.33 1006.61 1006.89 1007.57 1007.97 1008.09 1008.45 1008.73 1008.89 1009.01 1009.01 1009.05 1009.17 1009.45 1009.77 1009.93 1010.09 1010.37 1010.45 1010.37 1010.33 1010.73 1011.33 1011.49 1011.65 1011.69 1011.81 1011.81 1011.93 1012.01 1011.97 1012.01 1012.01 1012.13 1012.21 1012.61 1012.89 1013.01 1012.93 1012.97 1013.01 1012.81 1012.73
1004.37 1004.29 1004.21 1004.29 1004.29 1004.21 1004.57 1004.65 1004.77 1004.89 1005.21 1005.61 1005.41 1005.33 1005.41 1005.61 1005.73 1005.77 1005.97 1006.05 1006.21 1006.45 1007.05 1007.45 1007.73 1008.05 1008.29 1008.53 1008.69 1008.89 1008.89 1009.01 1009.17 1009.45 1009.77 1010.21 1010.69 1011.37 1011.61 1011.45 1011.29 1011.49 1012.01 1012.41 1012.41 1011.85 1011.73 1011.81 1011.97 1011.93 1011.97 1012.01 1012.17 1012.13 1012.29 1012.53 1012.65 1012.81 1013.05 1013.05 1013.13 1013.01 1012.69
1004.25 1004.25 1004.37 1004.33 1004.21 1004.13 1004.33 1004.41 1004.57 1005.05 1005.41 1005.65 1005.61 1005.69 1006.01 1006.09 1005.97 1005.61 1006.05 1006.13 1006.41 1006.81 1007.13 1007.29 1007.57 1007.73 1007.81 1007.97 1008.13 1008.33 1008.57 1008.73 1008.89 1009.09 1009.41 1009.93 1010.61 1011.49 1012.29 1012.73 1012.61 1012.13 1011.85 1012.21 1012.53 1012.37 1012.05 1011.85 1011.93 1012.05 1012.09 1012.25 1012.73 1012.57 1012.37 1012.49 1012.61 1012.89 1013.01 1013.05 1013.01 1012.89 1012.85
1004.25 1004.41 1004.49 1004.49 1004.65 1004.69 1004.61 1004.69 1004.81 1005.13 1005.61 1005.69 1005.49 1005.57 1005.77 1006.09 1006.21 1006.69 1006.77 1006.69 1006.65 1006.61 1006.85 1007.09 1007.49 1007.61 1007.65 1007.85 1007.97 1008.13 1008.33 1008.53 1008.77 1008.97 1009.37 1009.93 1010.61 1011.09 1011.49 1012.01 1012.65 1012.93 1012.97 1012.85 1012.81 1012.57 1012.45 1012.45 1012.37 1012.21 1012.17 1012.21 1012.57 1012.89 1012.81 1012.77 1012.89 1012.93 1012.93 1012.85 1012.77 1012.69 1012.65
1004.13 1004.09 1004.21 1004.45 1004.65 1004.85 1005.01 1005.05 1005.17 1005.53 1005.97 1005.97 1005.73 1005.65 1005.81 1006.41 1006.93 1007.69 1006.97 1006.49 1006.37 1006.45 1006.61 1006.85 1007.09 1007.37 1007.57 1007.69 1007.81 1007.93 1008.13 1008.29 1008.49 1008.77 1008.97 1009.53 1010.13 1010.65 1011.21 1011.81 1012.33 1012.97 1013.41 1013.57 1013.45 1013.21 1012.85 1012.53 1012.45 1012.45 1012.45 1012.45 1012.53 1012.73 1012.93 1013.05 1013.13 1013.13 1013.01 1012.85 1012.69 1012.49 1012.45
Wind_Speed
16 18 17 16 15 16 17 18 16 16 15 14 14 15 15 13 13 12 12 12 12 11 10 9 9 7 8 8 7 5 6 6 4 5 4 3 4 4 3 3 4 3 2 2 2 2 1 0 1 3 2 1 0 0 1 0 1 1 2 2 1 1 2
13 16 16 15 15 15 17 17 15 15 15 15 14 15 14 14 14 13 13 13 13 14 12 11 10 8 9 8 8 7 7 7 6 4 4 3 3 3 3 3 3 3 3 4 3 3 2 2 3 1 0 0 1 2 2 2 2 3 3 3 3 3 2
15 14 16 15 15 15 17 16 16 16 16 15 16 15 15 15 15 16 14 13 12 11 9 10 10 9 8 9 9 8 8 7 6 6 5 5 4 5 4 3 3 3 4 4 4 3 2 2 2 1 1 3 3 3 3 4 4 4 4 3 3 3 3
14 13 17 18 17 15 19 19 19 17 16 18 18 17 16 16 15 15 15 14 14 12 13 10 9 9 8 10 10 9 9 7 8 7 6 6 6 5 4 4 3 3 5 3 3 4 3 2 3 2 3 3 3 3 3 4 4 4 4 4 3 3 3
14 11 13 14 15 13 15 16 17 16 18 18 18 18 17 16 15 13 13 14 14 15 13 12 9 8 7 9 8 8 9 8 8 7 6 6 5 6 5 4 4 5 5 5 4 3 3 3 3 3 2 2 2 3 3 3 3 4 3 3 3 3 3
14 13 15 15 16 15 16 18 19 19 18 18 18 16 15 15 14 16 15 14 13 12 11 10 9 9 8 8 8 8 8 7 8 7 7 5 5 6 5 4 4 5 4 4 3 4 4 4 3 4 4 3 3 3 4 4 3 3 3 2 3 3 3
15 13 14 15 15 15 16 17 17 17 17 17 16 14 14 15 17 16 14 15 15 15 13 12 11 10 9 8 8 9 9 8 8 7 6 6 6 5 5 4 6 6 5 3 4 4 4 4 5 4 4 5 4 4 4 4 3 3 3 3 3 3 3
9 8 11 12 13 14 14 15 16 15 14 13 14 15 16 15 15 15 16 15 15 14 13 13 12 10 9 8 8 9 9 8 7 7 6 6 5 5 5 6 6 5 4 4 4 4 6 5 4 5 5 5 5 5 5 4 4 4 4 4 3 3 3
11 15 12 11 12 12 13 15 15 16 17 17 18 18 17 15 16 16 16 16 14 15 15 14 12 11 10 9 8 9 8 8 7 7 7 6 5 6 6 7 7 5 6 6 6 5 6 6 6 6 6 5 6 5 5 5 5 5 4 4 4 4 4
10 9 11 12 13 13 13 13 13 12 14 14 14 15 16 16 15 15 15 16 15 16 16 15 13 12 11 10 9 9 9 8 8 9 9 8 7 8 7 8 8 6 6 8 7 7 6 7 7 6 6 6 6 6 6 6 5 5 5 5 5 5 5
11 11 11 11 12 12 10 10 12 14 14 16 16 16 15 15 15 15 16 16 16 15 16 14 12 12 11 11 11 10 10 9 9 10 9 8 7 8 8 9 8 4 8 7 6 5 4 4 4 5 5 6 6 6 6 6 6 5 5 5 5 5 5
12 11 11 12 11 10 11 12 11 13 14 14 15 15 15 15 15 15 15 16 15 15 15 13 12 13 12 11 11 10 10 9 9 9 9 8 8 9 8 8 4 4 4 4 4 3 3 3 3 3 4 4 5 4 4 4 4 5 6 6 6 5 4
11 12 13 15 15 14 12 9 12 14 16 15 15 15 14 15 15 15 14 15 15 15 15 12 13 13 12 11 11 10 10 10 8 8 8 7 7 7 6 6 5 2 5 3 2 1 1 4 4 4 4 3 2 2 3 4 4 4 5 5 5 5 4
9 8 8 11 9 12 14 14 12 12 13 14 14 14 13 13 14 14 15 16 15 14 14 11 13 13 12 11 11 10 10 9 8 7 7 7 7 7 7 5 4 4 4 4 4 3 3 3 3 4 3 3 2 4 4 4 4 4 4 4 4 4 4
7 11 9 10 10 12 15 14 12 13 13 14 14 15 14 12 12 11 12 13 11 13 15 12 14 14 13 12 11 10 9 8 8 7 7 7 7 7 7 6 4 4 4 2 1 2 3 4 4 4 4 4 4 5 4 4 5 3 4 5 4 4 5
6 6 7 10 12 12 14 16 16 15 15 14 15 15 14 13 13 14 14 13 10 10 11 14 16 15 13 12 10 11 10 9 8 8 8 7 7 7 6 5 5 4 4 4 4 4 4 4 4 5 5 5 5 4 4 4 3 4 8 7 5 5 6
4 5 6 9 8 9 10 13 16 17 16 16 16 16 15 15 13 11 12 11 11 10 11 15 15 14 13 12 11 9 9 9 8 9 9 8 7 6 6 6 5 5 4 4 4 5 5 5 5 6 6 6 5 5 4 4 3 8 9 9 9 5 4
3 1 1 2 8 8 10 11 11 13 15 16 15 14 13 12 8 7 11 11 10 4 5 13 13 13 12 8 6 1 6 6 7 8 8 7 8 7 6 6 5 5 4 4 5 6 6 6 6 7 7 6 5 4 4 4 7 10 9 9 9 7 5
1 1 2 3 5 10 10 10 9 11 14 14 14 13 13 9 15 15 14 16 16 12 8 8 8 7 8 9 2 8 5 6 7 7 7 7 7 6 6 5 5 5 4 6 7 6 6 7 6 6 6 5 5 5 5 4 6 10 10 10 10 10 6
2 2 3 3 3 7 11 11 10 9 11 13 11 9 8 14 17 15 16 17 15 14 12 11 11 10 7 4 5 8 9 7 7 7 8 7 6 6 6 6 6 6 6 6 6 6 6 6 6 5 5 5 5 5 4 4 6 9 11 11 9 8 6
4 3 4 5 6 6 6 11 12 9 6 6 9 14 16 14 14 14 14 14 13 10 11 11 9 8 8 9 13 11 8 8 8 8 8 7 7 7 7 7 6 6 6 6 6 6 6 5 5 5 5 5 5 4 5 5 8 10 10 9 10 10 5
4 4 5 7 8 8 7 6 9 10 5 11 13 10 12 13 12 13 12 12 13 12 10 8 9 4 1 9 12 10 9 9 8 8 7 8 7 8 7 7 7 7 7 5 5 4 3 4 4 5 5 5 5 4 4 4 4 4 4 8 9 6 3
5 4 3 3 6 5 4 3 7 7 16 15 14 13 11 13 14 15 15 14 13 12 11 11 10 11 13 12 11 10 9 8 9 8 8 8 8 8 8 7 7 7 6 6 5 4 4 4 5 5 6 5 5 4 1 2 7 5 5 7 6 3 3
4 2 2 4 4 4 8 9 19 18 11 11 9 9 9 11 14 15 16 16 16 16 14 11 12 13 12 10 10 10 9 9 9 9 8 8 9 9 8 8 7 7 6 6 6 4 5 5 6 5 4 3 1 4 3 1 4 6 8 5 3 4 2
5 6 7 5 12 21 22 23 21 17 15 14 15 12 12 12 9 6 7 11 8 5 10 13 12 11 11 12 10 9 10 10 10 10 10 10 10 9 9 8 7 5 6 6 5 4 4 4 5 2 1 4 4 4 3 0 2 1 4 2 4 3 2
5 5 5 12 18 13 15 18 16 15 14 16 15 15 13 12 12 10 8 8 11 11 12 12 12 11 11 11 11 10 10 10 11 11 11 10 9 8 8 6 5 5 5 4 3 3 3 1 1 2 3 3 4 1 0 1 1 1 2 2 3 4 3
2 6 6 16 12 14 14 14 16 17 17 15 16 14 12 8 11 12 13 13 11 14 13 10 8 9 8 9 10 9 10 10 11 12 10 9 9 8 5 5 5 5 4 2 1 1 1 1 1 3 1 2 1 1 2 2 1 1 3 3 5 5 3
4 9 14 15 18 17 13 13 14 14 12 12 15 15 13 12 12 12 12 10 11 10 9 8 7 6 9 10 9 9 9 9 9 10 8 7 7 6 5 4 5 5 4 4 4 3 2 2 1 2 1 1 1 0 2 2 2 0 3 6 3 2 2
7 10 10 12 12 13 15 12 12 13 13 13 14 13 12 12 11 10 7 7 7 8 8 10 11 12 12 10 9 8 7 6 7 7 5 5 6 8 6 4 4 4 4 4 3 3 3 1 2 2 2 1 2 2 3 1 1 4 4 7 7 5 4
5 11 12 10 10 10 13 12 11 12 12 13 13 11 10 9 10 7 7 7 5 6 7 8 7 7 6 5 4 4 5 5 5 5 6 7 8 8 7 5 4 5 6 5 4 7 3 1 2 3 3 1 1 2 3 2 2 4 5 4 6 6 7
5 4 6 8 9 10 14 16 15 14 13 11 12 11 11 7 6 7 8 5 4 6 7 6 6 6 6 6 7 8 7 7 7 7 7 7 8 8 6 5 5 3 2 4 5 4 5 4 2 4 3 2 1 2 2 1 3 2 3 5 6 6 8
6 6 7 8 7 5 9 13 13 13 12 9 7 7 7 7 6 10 6 5 4 5 6 7 8 8 8 7 7 7 8 9 8 7 8 7 7 7 5 5 5 5 4 5 5 4 4 3 3 4 4 4 4 2 2 1 4 1 2 3 5 5 7
2 4 7 7 8 9 7 10 12 12 11 10 8 9 9 9 7 9 9 9 7 5 6 7 8 8 9 7 6 5 5 8 7 6 6 7 6 5 4 5 5 2 0 0 0 1 1 3 4 3 3 3 4 3 3 4 2 2 2 2 2 3 4
2 3 4 6 7 8 8 11 12 12 12 10 5 5 7 6 5 5 5 6 7 7 8 6 5 7 7 8 7 6 6 5 8 8 6 5 4 3 3 2 3 4 4 4 2 3 3 2 1 2 2 3 3 2 3 4 2 1 1 3 2 3 4
4 4 4 7 6 8 7 6 8 9 9 7 5 3 3 3 3 5 6 8 7 8 7 7 5 6 8 7 6 6 5 6 7 7 6 6 6 7 6 3 3 6 4 2 1 0 2 3 3 1 2 3 2 0 2 2 0 1 2 2 2 2 4
5 6 5 6 7 10 10 9 9 7 7 4 5 6 7 9 8 5 7 6 7 6 6 6 5 4 4 5 5 6 6 6 6 6 7 7 7 6 7 9 8 5 4 3 3 5 5 4 2 1 2 5 3 2 2 2 1 1 3 5 5 7 7
6 6 5 5 6 5 7 6 6 9 8 6 6 10 11 10 8 7 3 1 5 7 6 6 6 5 5 5 6 8 7 7 6 6 7 8 8 7 8 6 8 12 12 8 4 5 7 8 6 6 7 6 3 2 3 3 1 3 6 5 6 7 7
3 5 6 5 6 6 6 6 7 10 9 6 5 8 11 10 6 5 5 4 5 6 5 5 5 6 6 6 5 7 5 5 5 7 8 8 8 7 8 7 7 5 7 6 6 5 7 9 10 9 9 8 5 4 0 2 4 4 6 7 7 8 6
Wind_Direction
157 169 174 174 173 172 175 175 171 171 171 171 171 169 167 166 166 165 166 167 167 168 174 169 172 171 169 161 165 157 147 148 149 149 156 156 142 144 149 161 158 182 185 170 219 209 224 149 238 250 244 203 178 205 255 203 181 214 240 245 237 232 230
166 172 173 174 172 171 175 174 171 172 171 172 171 172 170 168 166 168 171 171 172 173 173 173 172 177 170 162 160 160 153 160 161 149 140 143 148 158 161 181 169 186 191 207 214 213 195 239 243 223 208 288 245 228 212 208 223 236 225 227 234 249 241
181 167 170 174 177 169 175 175 174 175 174 173 173 173 174 172 171 170 169 171 171 173 172 175 175 177 172 163 157 164 159 160 159 156 157 166 174 173 190 182 176 176 223 214 190 201 220 228 187 209 225 247 255 244 232 229 232 229 225 218 218 224 239
180 169 171 175 177 171 174 177 177 176 178 177 176 177 174 174 173 171 170 170 170 171 175 180 174 177 172 166 161 163 164 164 162 165 165 172 186 189 175 181 186 215 234 214 194 183 189 188 241 235 235 231 251 257 244 240 243 236 239 233 228 220 220
179 161 157 170 177 172 175 177 178 176 180 180 179 178 176 171 169 168 169 172 171 174 175 178 177 178 172 166 163 164 167 166 161 168 174 181 168 165 164 180 204 220 221 195 198 207 215 196 204 215 231 225 253 268 273 263 249 235 225 215 218 228 239
168 162 167 174 177 176 178 180 179 178 177 178 179 178 173 169 168 170 170 170 173 171 171 173 175 179 172 168 158 162 165 168 164 161 159 167 159 160 166 188 218 233 227 217 193 182 179 187 208 214 219 233 238 250 264 276 267 258 249 216 228 240 247
170 165 170 176 178 178 178 181 183 181 179 178 175 173 171 170 173 171 169 172 172 170 173 178 180 176 174 163 163 161 165 167 166 161 160 155 158 161 175 206 228 225 223 221 215 198 194 199 214 223 224 227 227 232 239 236 249 247 232 233 244 239 227
144 150 175 177 176 177 178 179 181 179 175 173 170 174 178 175 171 170 174 176 173 171 174 177 181 172 170 166 166 164 164 163 159 155 153 161 166 173 188 214 227 228 218 217 229 207 212 214 223 222 220 220 228 224 221 225 232 240 229 224 232 240 239
160 167 175 177 177 176 178 181 180 179 177 176 178 180 178 173 175 174 175 175 175 173 178 178 177 168 167 167 163 165 160 157 162 158 157 167 181 190 200 216 228 220 219 224 229 225 217 218 219 222 217 220 226 227 228 231 235 228 211 210 215 230 242
165 175 180 179 184 185 182 184 182 174 177 178 179 180 181 179 178 173 176 178 175 175 176 177 173 168 163 165 165 161 161 165 172 167 166 178 187 199 204 214 227 219 219 217 215 219 222 217 220 222 219 224 233 230 233 236 234 227 211 208 213 220 224
172 183 186 189 193 195 185 176 183 185 180 183 185 185 184 179 180 178 178 178 177 176 177 176 169 165 163 163 164 163 166 174 174 171 171 181 190 199 208 219 229 189 211 211 212 217 215 226 220 215 216 227 237 241 233 233 232 228 219 214 214 217 221
177 177 183 191 197 200 195 192 185 188 187 186 186 185 185 184 182 182 180 179 175 174 177 173 166 165 165 165 162 165 172 178 176 172 173 183 193 204 211 220 204 184 175 160 168 194 210 227 245 234 245 238 241 233 228 227 223 219 214 212 215 221 223
167 174 178 186 194 200 199 193 191 192 191 187 186 187 185 184 183 182 178 176 176 176 173 166 165 164 165 167 164 169 179 178 181 170 176 187 198 205 214 214 213 149 138 157 147 134 283 277 264 265 255 240 202 197 220 235 237 232 221 215 216 220 222
165 176 185 184 180 193 199 200 197 191 191 192 191 188 187 187 183 181 178 177 175 170 168 166 162 161 166 168 168 176 182 180 176 177 182 192 201 204 211 208 188 156 163 152 165 193 212 238 263 272 243 220 228 257 258 263 264 259 234 217 213 210 222
159 176 187 193 189 182 192 197 196 193 190 192 192 190 186 183 187 185 181 178 170 165 169 155 155 165 169 169 170 179 181 175 177 178 184 190 191 200 203 202 187 175 170 180 188 187 230 248 253 264 277 276 268 264 263 250 243 213 195 203 207 207 219
175 186 196 198 199 190 189 191 193 192 190 193 193 191 187 186 186 187 180 172 163 166 156 151 161 166 167 165 167 177 177 173 176 183 189 191 194 193 190 187 185 185 190 191 192 200 208 237 258 256 255 264 265 239 227 250 234 198 191 189 196 208 218
166 184 185 209 211 207 201 199 196 192 189 193 195 192 189 191 189 184 173 163 162 161 156 153 162 163 160 164 167 162 169 170 172 178 186 193 192 188 184 184 183 187 193 201 204 205 214 220 236 250 259 253 231 238 252 250 216 200 204 212 216 213 218
71 18 323 186 217 223 216 204 197 193 195 196 196 189 187 188 174 101 61 49 39 7 156 151 152 155 154 143 75 179 163 162 159 168 179 178 186 185 185 181 179 186 193 204 215 220 218 224 229 240 246 240 241 242 235 223 216 206 215 224 233 229 223
181 223 240 257 203 213 219 223 208 198 199 201 196 188 184 143 96 109 129 133 146 142 129 133 129 98 82 80 158 237 188 175 169 172 178 186 186 184 175 177 186 198 206 217 219 219 220 225 228 232 231 226 224 228 235 243 232 220 222 230 235 239 233
221 236 263 281 256 202 216 217 219 211 203 200 188 160 116 119 138 149 148 146 145 143 136 108 95 99 97 129 223 239 212 183 179 182 192 193 185 180 182 184 199 206 211 217 222 223 227 226 230 236 232 231 232 234 233 231 241 232 227 229 231 239 228
181 194 213 228 252 258 205 210 222 216 196 176 130 115 123 137 138 142 141 137 132 119 112 111 109 79 113 180 207 216 199 187 183 190 195 192 185 183 188 192 202 210 214 214 217 218 221 226 226 235 233 232 226 222 227 234 238 242 237 224 217 228 220
200 207 234 234 232 231 242 203 203 201 160 79 92 116 131 134 126 108 88 74 72 59 47 47 50 36 279 226 220 206 192 183 185 191 192 188 186 187 193 197 199 211 217 215 213 207 212 237 232 237 241 235 224 219 232 249 288 301 256 224 229 211 202
176 209 218 250 227 237 239 206 196 109 93 112 124 130 128 120 115 113 112 112 119 123 127 134 165 206 210 220 218 205 189 182 185 192 193 191 188 192 194 196 203 213 206 205 206 220 231 236 238 239 238 241 213 202 246 30 44 29 338 298 263 206 221
160 164 279 91 87 35 15 38 56 63 84 88 78 62 74 88 110 125 132 135 139 144 151 182 193 204 213 218 215 198 186 185 189 194 196 193 193 195 197 194 197 201 190 195 200 212 226 229 243 244 235 228 60 59 103 104 343 5 10 12 208 215 247
100 81 87 87 65 71 78 92 101 108 103 98 86 71 55 31 30 66 108 100 107 133 174 190 203 209 215 217 208 195 187 188 190 194 197 197 198 194 193 192 190 187 180 189 185 211 228 244 238 244 40 81 98 67 65 101 283 41 86 135 190 208 234
105 101 81 77 84 101 98 103 107 110 110 114 119 128 140 143 124 99 93 142 168 193 213 205 207 212 218 213 199 191 188 189 193 198 198 197 196 194 193 186 180 177 167 168 165 198 221 197 181 106 92 82 78 124 189 171 206 230 268 298 283 243 253
108 119 99 90 99 93 100 108 122 135 142 143 140 141 139 152 148 154 168 183 189 205 213 218 222 224 214 201 191 187 191 192 194 198 197 188 188 188 176 162 150 125 113 132 156 79 45 26 73 106 98 72 110 158 201 199 207 273 203 237 230 237 222
34 47 71 107 113 113 113 123 125 129 128 130 141 150 160 167 168 177 186 187 200 210 216 218 221 200 193 200 192 194 191 188 194 193 185 178 163 151 131 104 97 104 107 79 55 24 309 270 117 118 72 74 62 224 251 244 171 104 120 120 87 81 11
63 80 88 95 106 120 125 125 129 131 140 145 145 156 165 164 168 177 174 192 203 198 188 193 203 203 212 198 196 196 196 191 182 174 162 137 126 117 108 97 91 76 76 67 12 302 266 215 133 127 99 79 325 288 283 333 14 74 64 68 79 94 92
78 103 114 124 128 137 127 127 135 140 146 147 156 158 157 164 178 177 174 175 170 142 126 123 123 120 112 100 92 87 78 81 87 87 94 105 104 101 102 97 74 56 41 30 286 262 256 210 120 109 131 182 262 295 310 5 60 76 71 60 43 45 12
68 70 111 133 139 144 135 134 142 144 147 154 161 162 171 178 160 156 148 160 159 139 127 122 111 102 93 92 95 102 103 96 95 96 99 103 106 103 107 105 112 129 188 240 254 263 260 248 168 134 155 169 209 253 291 347 66 58 44 45 35 24 5
98 100 103 108 119 134 124 131 135 137 140 153 161 163 164 167 153 130 148 151 163 141 129 123 111 102 99 93 104 122 128 119 117 117 115 113 109 114 122 135 158 187 201 191 214 233 238 233 127 141 161 187 196 194 237 103 80 22 345 24 8 2 352
97 123 123 116 123 129 121 123 128 135 140 140 148 131 123 129 143 146 157 155 158 131 113 101 108 111 114 126 139 131 122 121 122 121 119 106 108 115 130 157 178 190 350 106 200 174 114 89 141 176 187 187 188 185 169 118 80 27 348 352 355 348 337
67 85 115 123 116 125 126 128 130 128 132 135 130 119 127 133 141 147 147 139 113 104 99 102 126 133 138 145 145 146 143 140 150 138 132 136 124 133 137 70 59 96 88 91 82 93 87 98 122 153 202 193 171 184 172 133 130 5 332 310 329 325 319
103 99 98 96 101 106 110 111 115 123 125 133 151 149 136 153 182 158 138 120 130 132 134 139 136 143 151 152 149 152 162 156 151 156 144 110 79 59 41 26 46 102 97 29 329 63 138 130 113 75 52 101 62 46 122 104 135 234 210 269 268 261 297
134 124 123 130 134 135 133 134 128 114 106 93 85 71 55 49 23 74 107 123 130 142 146 149 150 153 156 149 140 142 137 133 146 150 130 120 113 105 81 58 46 25 117 125 44 45 29 72 129 213 115 104 49 21 116 173 215 238 237 249 246 249 246
142 137 138 144 128 127 129 125 113 105 107 118 118 101 94 75 47 13 37 115 169 163 158 156 162 171 169 161 160 153 158 162 161 160 152 143 138 128 118 107 42 41 38 45 49 63 77 79 80 82 102 120 117 14 52 120 203 266 272 269 261 253 251
153 142 142 142 138 136 125 122 119 123 133 147 131 106 101 113 116 245 227 184 146 148 137 136 134 135 106 106 112 150 151 162 162 166 158 149 142 134 135 124 118 69 35 32 34 32 64 69 67 71 81 100 125 147 207 238 231 264 293 286 271 259 267